        Date        , GPU Core Clock [MHz] , GPU Memory Clock [MHz] , GPU Temperature [�C] , GPU Load [%] , Memory Usage (Dedicated) [MB] , Memory Usage (Dynamic) [MB] ,
2014-10-20 22:43:30 ,              211.8   ,                800.0   ,                 53   ,          0   ,                           0   ,                        96   ,
2014-10-20 22:43:31 ,              211.8   ,                800.0   ,                 53   ,         18   ,                           0   ,                        96   ,
2014-10-20 22:43:32 ,              211.8   ,                800.0   ,                 53   ,         19   ,                           0   ,                        96   ,
2014-10-20 22:43:33 ,              211.8   ,                800.0   ,                 53   ,          0   ,                           0   ,                        96   ,
2014-10-20 22:43:34 ,              211.8   ,                100.0   ,                 53   ,          0   ,                           0   ,                        92   ,
2014-10-20 22:43:35 ,              211.8   ,                800.0   ,                 54   ,          0   ,                           0   ,                        93   ,
2014-10-20 22:43:36 ,              211.8   ,                800.0   ,                 53   ,          0   ,                           0   ,                        93   ,
2014-10-20 22:43:37 ,              211.8   ,                800.0   ,                 53   ,          0   ,                           0   ,                        93   ,
2014-10-20 22:43:38 ,              211.8   ,                800.0   ,                 53   ,          0   ,                           0   ,                        92   ,
2014-10-20 22:43:39 ,              211.8   ,                800.0   ,                 53   ,          0   ,                           0   ,                        92   ,
2014-10-20 22:43:40 ,              211.8   ,                800.0   ,                 53   ,          0   ,                           0   ,                        92   ,
2014-10-20 22:43:41 ,              211.8   ,                800.0   ,                 53   ,          0   ,                           0   ,                        92   ,
2014-10-20 22:43:42 ,              211.8   ,                800.0   ,                 54   ,          0   ,                           0   ,                        92   ,
2014-10-20 22:43:43 ,              211.8   ,                800.0   ,                 54   ,          0   ,                           0   ,                        92   ,
2014-10-20 22:43:44 ,              211.8   ,                800.0   ,                 53   ,          0   ,                           0   ,                        92   ,
2014-10-20 22:43:45 ,              211.8   ,                800.0   ,                 54   ,          0   ,                           0   ,                        92   ,
2014-10-20 22:43:46 ,              211.8   ,                800.0   ,                 53   ,          0   ,                           0   ,                        92   ,
2014-10-20 22:43:47 ,              211.8   ,                800.0   ,                 53   ,          0   ,                           0   ,                        92   ,
2014-10-20 22:43:48 ,              211.8   ,                800.0   ,                 53   ,          0   ,                           0   ,                        92   ,
2014-10-20 22:43:49 ,              211.8   ,                800.0   ,                 53   ,          0   ,                           0   ,                        92   ,
2014-10-20 22:43:50 ,              211.8   ,                800.0   ,                 53   ,          0   ,                           0   ,                        92   ,
2014-10-20 22:43:51 ,              211.8   ,                800.0   ,                 52   ,          0   ,                           0   ,                        92   ,
2014-10-20 22:43:52 ,              211.8   ,                800.0   ,                 53   ,         25   ,                           0   ,                        92   ,
2014-10-20 22:43:53 ,              211.8   ,                800.0   ,                 53   ,          0   ,                           0   ,                        92   ,
2014-10-20 22:43:54 ,              211.8   ,                800.0   ,                 53   ,          0   ,                           0   ,                        92   ,
2014-10-20 22:43:55 ,              211.8   ,                800.0   ,                 53   ,          0   ,                           0   ,                        92   ,
2014-10-20 22:43:56 ,              211.8   ,                800.0   ,                 53   ,          0   ,                           0   ,                        92   ,
2014-10-20 22:43:57 ,              211.8   ,                800.0   ,                 53   ,          0   ,                           0   ,                        92   ,
2014-10-20 22:43:58 ,              211.8   ,                800.0   ,                 53   ,          0   ,                           0   ,                        92   ,
2014-10-20 22:43:59 ,              211.8   ,                800.0   ,                 55   ,          0   ,                           0   ,                        93   ,
2014-10-20 22:44:00 ,              211.8   ,                800.0   ,                 54   ,          0   ,                           0   ,                       101   ,
2014-10-20 22:44:01 ,              211.8   ,                800.0   ,                 55   ,          0   ,                           0   ,                       101   ,
2014-10-20 22:44:02 ,              288.0   ,                800.0   ,                 55   ,         52   ,                           0   ,                       101   ,
2014-10-20 22:44:03 ,              211.8   ,                800.0   ,                 56   ,          0   ,                           0   ,                       101   ,
2014-10-20 22:44:04 ,              553.8   ,                800.0   ,                 56   ,          0   ,                           0   ,                       105   ,
2014-10-20 22:44:05 ,              553.8   ,                800.0   ,                 56   ,          0   ,                           0   ,                       105   ,
2014-10-20 22:44:06 ,              553.8   ,                800.0   ,                 57   ,          0   ,                           0   ,                       105   ,
2014-10-20 22:44:07 ,              553.8   ,                800.0   ,                 56   ,          0   ,                           0   ,                       105   ,
2014-10-20 22:44:08 ,              553.8   ,                800.0   ,                 56   ,          0   ,                           0   ,                       105   ,
2014-10-20 22:44:09 ,              211.8   ,                800.0   ,                 57   ,          0   ,                           0   ,                       105   ,
2014-10-20 22:44:10 ,              211.8   ,                800.0   ,                 57   ,          1   ,                           0   ,                       147   ,
2014-10-20 22:44:11 ,              211.8   ,                800.0   ,                 57   ,          0   ,                           0   ,                       147   ,
2014-10-20 22:44:12 ,              288.0   ,                800.0   ,                 57   ,          1   ,                           0   ,                       147   ,
2014-10-20 22:44:13 ,              211.8   ,                800.0   ,                 57   ,          0   ,                           0   ,                       147   ,
2014-10-20 22:44:14 ,              211.8   ,                800.0   ,                 57   ,          0   ,                           0   ,                       147   ,
2014-10-20 22:44:15 ,              211.8   ,                800.0   ,                 57   ,          0   ,                           0   ,                       147   ,
        Date        , GPU Core Clock [MHz] , GPU Memory Clock [MHz] , GPU Temperature [�C] , GPU Load [%] , Memory Usage (Dedicated) [MB] , Memory Usage (Dynamic) [MB] ,
2014-10-20 22:47:02 ,              211.8   ,                800.0   ,                 56   ,          0   ,                           0   ,                       100   ,
2014-10-20 22:47:03 ,              211.8   ,                800.0   ,                 57   ,          0   ,                           0   ,                       100   ,
2014-10-20 22:47:04 ,              211.8   ,                800.0   ,                 54   ,          0   ,                           0   ,                       101   ,
2014-10-20 22:47:05 ,              211.8   ,                800.0   ,                 57   ,          0   ,                           0   ,                       102   ,
2014-10-20 22:47:06 ,              211.8   ,                800.0   ,                 56   ,          0   ,                           0   ,                       102   ,
2014-10-20 22:47:07 ,              211.8   ,                800.0   ,                 56   ,          0   ,                           0   ,                       102   ,
2014-10-20 22:47:08 ,              211.8   ,                800.0   ,                 54   ,          0   ,                           0   ,                       102   ,
2014-10-20 22:47:09 ,              211.8   ,                800.0   ,                 56   ,          0   ,                           0   ,                       106   ,
2014-10-20 22:47:10 ,              211.8   ,                800.0   ,                 54   ,          0   ,                           0   ,                       106   ,
2014-10-20 22:47:11 ,              211.8   ,                800.0   ,                 54   ,          0   ,                           0   ,                       105   ,
2014-10-20 22:47:12 ,              211.8   ,                800.0   ,                 55   ,          0   ,                           0   ,                        97   ,
2014-10-20 22:47:13 ,              211.8   ,                800.0   ,                 54   ,          0   ,                           0   ,                        96   ,
2014-10-20 22:47:14 ,              211.8   ,                800.0   ,                 53   ,          0   ,                           0   ,                        96   ,
2014-10-20 22:47:15 ,              211.8   ,                800.0   ,                 53   ,          1   ,                           0   ,                        96   ,
2014-10-20 22:47:16 ,              211.8   ,                800.0   ,                 54   ,          0   ,                           0   ,                       101   ,
2014-10-20 22:47:17 ,              211.8   ,                800.0   ,                 54   ,         24   ,                           0   ,                       100   ,
2014-10-20 22:47:18 ,              211.8   ,                800.0   ,                 53   ,          2   ,                           0   ,                        95   ,
2014-10-20 22:47:19 ,              211.8   ,                800.0   ,                 54   ,          0   ,                           0   ,                        96   ,
2014-10-20 22:47:20 ,              211.8   ,                800.0   ,                 55   ,          0   ,                           0   ,                        96   ,
2014-10-20 22:47:21 ,              211.8   ,                800.0   ,                 53   ,          0   ,                           0   ,                        96   ,
2014-10-20 22:47:22 ,              211.8   ,                800.0   ,                 53   ,          0   ,                           0   ,                        96   ,
2014-10-20 22:47:23 ,              211.8   ,                800.0   ,                 53   ,          0   ,                           0   ,                        96   ,
2014-10-20 22:47:24 ,              211.8   ,                800.0   ,                 53   ,          0   ,                           0   ,                        95   ,
2014-10-20 22:47:25 ,              211.8   ,                800.0   ,                 53   ,          0   ,                           0   ,                        99   ,
2014-10-20 22:47:26 ,              211.8   ,                800.0   ,                 54   ,          0   ,                           0   ,                        95   ,
2014-10-20 22:47:27 ,              211.8   ,                800.0   ,                 54   ,          0   ,                           0   ,                        96   ,
2014-10-20 22:47:28 ,              211.8   ,                800.0   ,                 54   ,          1   ,                           0   ,                        96   ,
2014-10-20 22:47:29 ,              211.8   ,                800.0   ,                 54   ,          0   ,                           0   ,                        96   ,
2014-10-20 22:47:30 ,              211.8   ,                800.0   ,                 53   ,          0   ,                           0   ,                        96   ,
2014-10-20 22:47:31 ,              211.8   ,                800.0   ,                 53   ,          0   ,                           0   ,                        96   ,
2014-10-20 22:47:32 ,              211.8   ,                800.0   ,                 53   ,          0   ,                           0   ,                        96   ,
2014-10-20 22:47:33 ,              211.8   ,                800.0   ,                 53   ,          0   ,                           0   ,                        96   ,
2014-10-20 22:47:34 ,              553.8   ,                800.0   ,                 52   ,          6   ,                           0   ,                        99   ,
2014-10-20 22:47:35 ,              211.8   ,                800.0   ,                 52   ,          0   ,                           0   ,                        97   ,
2014-10-20 22:47:36 ,              211.8   ,                800.0   ,                 53   ,          0   ,                           0   ,                        97   ,
2014-10-20 22:47:37 ,              211.8   ,                800.0   ,                 54   ,         81   ,                           0   ,                        99   ,
2014-10-20 22:47:38 ,              211.8   ,                800.0   ,                 53   ,          0   ,                           0   ,                        99   ,
2014-10-20 22:47:39 ,              211.8   ,                800.0   ,                 53   ,          0   ,                           0   ,                       100   ,
2014-10-20 22:47:40 ,              288.0   ,                800.0   ,                 53   ,         45   ,                           0   ,                       100   ,
2014-10-20 22:47:41 ,              211.8   ,                800.0   ,                 52   ,          0   ,                           0   ,                       100   ,
2014-10-20 22:47:42 ,              211.8   ,                800.0   ,                 53   ,          0   ,                           0   ,                       100   ,
2014-10-20 22:47:43 ,              211.8   ,                800.0   ,                 52   ,          0   ,                           0   ,                       100   ,
2014-10-20 22:47:44 ,              553.8   ,                800.0   ,                 52   ,          2   ,                           0   ,                       100   ,
2014-10-20 22:47:45 ,              211.8   ,                800.0   ,                 52   ,          0   ,                           0   ,                       100   ,
2014-10-20 22:47:46 ,              211.8   ,                800.0   ,                 52   ,          0   ,                           0   ,                       100   ,
2014-10-20 22:47:47 ,              211.8   ,                800.0   ,                 52   ,          0   ,                           0   ,                       100   ,
2014-10-20 22:47:48 ,              211.8   ,                800.0   ,                 52   ,          0   ,                           0   ,                       100   ,
2014-10-20 22:47:49 ,              211.8   ,                800.0   ,                 52   ,          0   ,                           0   ,                       100   ,
2014-10-20 22:47:50 ,              211.8   ,                800.0   ,                 52   ,          0   ,                           0   ,                       100   ,
2014-10-20 22:47:51 ,              211.8   ,                800.0   ,                 51   ,          0   ,                           0   ,                       100   ,
2014-10-20 22:47:52 ,              211.8   ,                800.0   ,                 52   ,         22   ,                           0   ,                       100   ,
2014-10-20 22:47:53 ,              211.8   ,                800.0   ,                 51   ,          0   ,                           0   ,                       100   ,
2014-10-20 22:47:54 ,              211.8   ,                800.0   ,                 52   ,          0   ,                           0   ,                       100   ,
2014-10-20 22:47:55 ,              211.8   ,                800.0   ,                 51   ,          0   ,                           0   ,                       100   ,
2014-10-20 22:47:56 ,              211.8   ,                800.0   ,                 51   ,          0   ,                           0   ,                       100   ,
2014-10-20 22:47:57 ,              211.8   ,                800.0   ,                 52   ,          0   ,                           0   ,                       100   ,
2014-10-20 22:47:58 ,              211.8   ,                800.0   ,                 52   ,          0   ,                           0   ,                       100   ,
2014-10-20 22:47:59 ,              211.8   ,                800.0   ,                 52   ,          0   ,                           0   ,                       100   ,
2014-10-20 22:48:00 ,              211.8   ,                800.0   ,                 52   ,          0   ,                           0   ,                       100   ,
2014-10-20 22:48:01 ,              211.8   ,                800.0   ,                 52   ,          0   ,                           0   ,                       100   ,
2014-10-20 22:48:02 ,              211.8   ,                800.0   ,                 52   ,          0   ,                           0   ,                       100   ,
2014-10-20 22:48:03 ,              211.8   ,                800.0   ,                 51   ,          0   ,                           0   ,                       100   ,
2014-10-20 22:48:04 ,              211.8   ,                800.0   ,                 50   ,          0   ,                           0   ,                       100   ,
2014-10-20 22:48:05 ,              211.8   ,                800.0   ,                 51   ,          0   ,                           0   ,                       100   ,
2014-10-20 22:48:06 ,              211.8   ,                800.0   ,                 51   ,          0   ,                           0   ,                       100   ,
2014-10-20 22:48:07 ,              211.8   ,                800.0   ,                 51   ,          0   ,                           0   ,                       100   ,
2014-10-20 22:48:08 ,              211.8   ,                800.0   ,                 51   ,          0   ,                           0   ,                       100   ,
2014-10-20 22:48:09 ,              211.8   ,                800.0   ,                 50   ,          0   ,                           0   ,                       100   ,
2014-10-20 22:48:10 ,              211.8   ,                800.0   ,                 51   ,          0   ,                           0   ,                       100   ,
2014-10-20 22:48:11 ,              211.8   ,                800.0   ,                 51   ,          0   ,                           0   ,                       100   ,
2014-10-20 22:48:12 ,              211.8   ,                800.0   ,                 51   ,          0   ,                           0   ,                       100   ,
2014-10-20 22:48:13 ,              211.8   ,                800.0   ,                 50   ,          0   ,                           0   ,                        96   ,
2014-10-20 22:48:14 ,              211.8   ,                800.0   ,                 51   ,          0   ,                           0   ,                        96   ,
2014-10-20 22:48:15 ,              211.8   ,                800.0   ,                 50   ,          0   ,                           0   ,                        96   ,
2014-10-20 22:48:16 ,              211.8   ,                800.0   ,                 51   ,          0   ,                           0   ,                        96   ,
2014-10-20 22:48:17 ,              211.8   ,                800.0   ,                 50   ,          0   ,                           0   ,                        96   ,
2014-10-20 22:48:18 ,              211.8   ,                800.0   ,                 51   ,          0   ,                           0   ,                        96   ,
2014-10-20 22:48:19 ,              211.8   ,                800.0   ,                 52   ,          0   ,                           0   ,                        96   ,
2014-10-20 22:48:20 ,              211.8   ,                800.0   ,                 51   ,          0   ,                           0   ,                        96   ,
2014-10-20 22:48:21 ,              211.8   ,                800.0   ,                 51   ,          0   ,                           0   ,                        96   ,
2014-10-20 22:48:22 ,              211.8   ,                800.0   ,                 51   ,          0   ,                           0   ,                        96   ,
2014-10-20 22:48:23 ,              211.8   ,                800.0   ,                 51   ,          0   ,                           0   ,                        96   ,
2014-10-20 22:48:24 ,              553.8   ,                800.0   ,                 51   ,         28   ,                           0   ,                        96   ,
2014-10-20 22:48:25 ,              211.8   ,                800.0   ,                 51   ,          0   ,                           0   ,                        96   ,
2014-10-20 22:48:26 ,              211.8   ,                800.0   ,                 52   ,          0   ,                           0   ,                        96   ,
2014-10-20 22:48:27 ,              211.8   ,                800.0   ,                 51   ,          1   ,                           0   ,                        96   ,
2014-10-20 22:48:28 ,              211.8   ,                800.0   ,                 51   ,         15   ,                           0   ,                        96   ,
2014-10-20 22:48:29 ,              211.8   ,                800.0   ,                 51   ,          8   ,                           0   ,                        96   ,
2014-10-20 22:48:30 ,              211.8   ,                800.0   ,                 51   ,          0   ,                           0   ,                        96   ,
2014-10-20 22:48:31 ,              211.8   ,                800.0   ,                 51   ,         89   ,                           0   ,                       100   ,
2014-10-20 22:48:32 ,              211.8   ,                800.0   ,                 51   ,          0   ,                           0   ,                        96   ,